When you browse on this site, cookies collect data to enhance your experience and personalize the content and advertising you see.
Visit our Privacy Policy to learn more. By continuing to use the site, you agree to this use of cookies and data.

Stündliche Wetter Bolshie Gorki

Heute, 23 September, Mittwoch

Zeit Temperatur Niederschläge Wind Luftdruck Luftfeuchtigkeit
00:00 +11°C° 0 mm 3 m/S 747 mmHg 89%
01:00 +10°C° 0 mm 3 m/S 748 mmHg 92%
02:00 +10°C° 0 mm 3 m/S 748 mmHg 95%
03:00 +9°C° 0 mm 2 m/S 748 mmHg 95%
04:00 +9°C° 0 mm 2 m/S 748 mmHg 95%
05:00 +9°C° 0 mm 2 m/S 749 mmHg 95%
06:00 +10°C° 0 mm 2 m/S 749 mmHg 91%
07:00 +13°C° 0 mm 2 m/S 749 mmHg 87%
08:00 +14°C° 0 mm 2 m/S 749 mmHg 82%
09:00 +16°C° 0 mm 2 m/S 749 mmHg 76%
10:00 +17°C° 0 mm 2 m/S 749 mmHg 71%
11:00 +19°C° 0 mm 2 m/S 749 mmHg 65%
12:00 +20°C° 0 mm 2 m/S 749 mmHg 64%
13:00 +20°C° 0 mm 3 m/S 749 mmHg 63%
14:00 +22°C° 0 mm 3 m/S 749 mmHg 62%
15:00 +20°C° 0 mm 2 m/S 749 mmHg 69%
16:00 +19°C° 0 mm 2 m/S 748 mmHg 76%
17:00 +18°C° 0 mm 2 m/S 748 mmHg 82%
18:00 +17°C° 0 mm 2 m/S 748 mmHg 86%
19:00 +16°C° 0 mm 2 m/S 749 mmHg 89%
20:00 +15°C° 0 mm 2 m/S 749 mmHg 93%
21:00 +15°C° 0 mm 2 m/S 749 mmHg 93%
22:00 +15°C° 0 mm 2 m/S 749 mmHg 94%
23:00 +14°C° 0 mm 2 m/S 748 mmHg 94%

Morgen, 24 September, Donnerstag

Zeit Temperatur Niederschläge Wind Luftdruck Luftfeuchtigkeit
00:00 +14°C° 0 mm 2 m/S 749 mmHg 94%
01:00 +13°C° 0 mm 2 m/S 749 mmHg 93%
02:00 +13°C° 0 mm 2 m/S 750 mmHg 93%
03:00 +13°C° 0 mm 2 m/S 750 mmHg 92%
04:00 +12°C° 0 mm 2 m/S 750 mmHg 92%
05:00 +12°C° 0 mm 2 m/S 749 mmHg 91%
06:00 +13°C° 0 mm 2 m/S 750 mmHg 86%
07:00 +14°C° 0 mm 2 m/S 750 mmHg 82%
08:00 +14°C° 0 mm 3 m/S 750 mmHg 77%
09:00 +16°C° 0 mm 3 m/S 750 mmHg 71%
10:00 +18°C° 0 mm 3 m/S 750 mmHg 65%
11:00 +19°C° 0 mm 3 m/S 750 mmHg 59%
12:00 +20°C° 0 mm 3 m/S 750 mmHg 57%
13:00 +20°C° 0 mm 3 m/S 750 mmHg 55%
14:00 +21°C° 0 mm 3 m/S 750 mmHg 53%
15:00 +19°C° 0 mm 2 m/S 750 mmHg 60%
16:00 +18°C° 0 mm 2 m/S 750 mmHg 67%
17:00 +17°C° 0 mm 2 m/S 750 mmHg 73%
18:00 +16°C° 0 mm 2 m/S 750 mmHg 76%
19:00 +15°C° 0 mm 2 m/S 750 mmHg 78%
20:00 +14°C° 0 mm 2 m/S 750 mmHg 81%
21:00 +14°C° 0 mm 2 m/S 750 mmHg 83%
22:00 +13°C° 0 mm 2 m/S 750 mmHg 85%
23:00 +13°C° 0 mm 2 m/S 750 mmHg 87%

übermorgen, 25 September, Freitag

Zeit Temperatur Niederschläge Wind Luftdruck Luftfeuchtigkeit
00:00 +12°C° 0 mm 2 m/S 751 mmHg 88%
01:00 +12°C° 0 mm 2 m/S 751 mmHg 88%
02:00 +10°C° 0 mm 2 m/S 751 mmHg 89%
03:00 +10°C° 0 mm 2 m/S 751 mmHg 89%
04:00 +10°C° 0 mm 2 m/S 751 mmHg 89%
05:00 +10°C° 0 mm 2 m/S 750 mmHg 88%
06:00 +12°C° 0 mm 2 m/S 751 mmHg 83%
07:00 +14°C° 0 mm 2 m/S 751 mmHg 77%
08:00 +14°C° 0 mm 3 m/S 751 mmHg 71%
09:00 +17°C° 0 mm 3 m/S 751 mmHg 66%
10:00 +18°C° 0 mm 3 m/S 751 mmHg 61%
11:00 +20°C° 0 mm 3 m/S 751 mmHg 56%
12:00 +20°C° 0 mm 3 m/S 750 mmHg 56%
13:00 +21°C° 0 mm 3 m/S 750 mmHg 55%
14:00 +21°C° 0 mm 3 m/S 750 mmHg 54%
15:00 +20°C° 0 mm 3 m/S 750 mmHg 60%
16:00 +19°C° 0 mm 3 m/S 750 mmHg 67%
17:00 +17°C° 0 mm 3 m/S 750 mmHg 73%
18:00 +16°C° 0 mm 3 m/S 750 mmHg 75%
19:00 +16°C° 0 mm 3 m/S 750 mmHg 76%
20:00 +14°C° 0 mm 3 m/S 750 mmHg 78%
21:00 +14°C° 0 mm 3 m/S 750 mmHg 78%
22:00 +13°C° 0 mm 3 m/S 750 mmHg 79%
23:00 +13°C° 0 mm 3 m/S 750 mmHg 80%

26 September, Samstag

Zeit Temperatur Niederschläge Wind Luftdruck Luftfeuchtigkeit
00:00 +13°C° 0 mm 3 m/S 750 mmHg 81%
01:00 +12°C° 0 mm 3 m/S 750 mmHg 81%
02:00 +12°C° 0 mm 3 m/S 751 mmHg 82%
03:00 +12°C° 0 mm 3 m/S 751 mmHg 82%
04:00 +12°C° 0 mm 3 m/S 751 mmHg 82%
05:00 +12°C° 0 mm 3 m/S 751 mmHg 81%
06:00 +12°C° 0 mm 3 m/S 751 mmHg 79%
07:00 +13°C° 0 mm 3 m/S 751 mmHg 76%
08:00 +14°C° 0 mm 4 m/S 751 mmHg 73%
09:00 +17°C° 0 mm 4 m/S 751 mmHg 68%
10:00 +18°C° 0 mm 4 m/S 751 mmHg 64%
11:00 +19°C° 0 mm 4 m/S 752 mmHg 59%
12:00 +20°C° 0 mm 4 m/S 752 mmHg 58%
13:00 +21°C° 0 mm 4 m/S 752 mmHg 56%
14:00 +21°C° 0 mm 4 m/S 752 mmHg 54%
15:00 +20°C° 0 mm 4 m/S 752 mmHg 60%
16:00 +18°C° 0 mm 3 m/S 752 mmHg 66%
17:00 +17°C° 0 mm 3 m/S 752 mmHg 71%
18:00 +16°C° 0 mm 3 m/S 752 mmHg 72%
19:00 +14°C° 0 mm 3 m/S 752 mmHg 74%
20:00 +14°C° 0 mm 3 m/S 753 mmHg 75%
21:00 +13°C° 0 mm 3 m/S 753 mmHg 75%
22:00 +12°C° 0 mm 3 m/S 753 mmHg 76%
23:00 +12°C° 0 mm 3 m/S 753 mmHg 77%

27 September, Sonntag

Zeit Temperatur Niederschläge Wind Luftdruck Luftfeuchtigkeit
00:00 +11°C° 0 mm 3 m/S 753 mmHg 78%
01:00 +11°C° 0 mm 3 m/S 753 mmHg 79%
02:00 +10°C° 0 mm 3 m/S 753 mmHg 80%
03:00 +10°C° 0 mm 3 m/S 753 mmHg 81%
04:00 +10°C° 0 mm 3 m/S 753 mmHg 81%
05:00 +10°C° 0 mm 3 m/S 753 mmHg 82%
06:00 +11°C° 0 mm 3 m/S 753 mmHg 79%
07:00 +12°C° 0 mm 3 m/S 753 mmHg 75%
08:00 +13°C° 0 mm 3 m/S 753 mmHg 72%
09:00 +15°C° 0 mm 4 m/S 753 mmHg 66%
10:00 +18°C° 0 mm 4 m/S 754 mmHg 60%
11:00 +20°C° 0 mm 4 m/S 754 mmHg 55%
12:00 +20°C° 0 mm 4 m/S 754 mmHg 52%
13:00 +20°C° 0 mm 4 m/S 754 mmHg 50%
14:00 +21°C° 0 mm 4 m/S 754 mmHg 48%
15:00 +19°C° 0 mm 4 m/S 753 mmHg 53%
16:00 +18°C° 0 mm 4 m/S 753 mmHg 58%
17:00 +16°C° 0 mm 3 m/S 753 mmHg 62%
18:00 +14°C° 0 mm 3 m/S 753 mmHg 64%
19:00 +13°C° 0 mm 3 m/S 754 mmHg 65%
20:00 +12°C° 0 mm 3 m/S 754 mmHg 66%
21:00 +11°C° 0 mm 3 m/S 754 mmHg 66%
22:00 +11°C° 0 mm 3 m/S 754 mmHg 67%
23:00 +10°C° 0 mm 3 m/S 754 mmHg 68%

28 September, Montag

Zeit Temperatur Niederschläge Wind Luftdruck Luftfeuchtigkeit
00:00 +10°C° 0 mm 3 m/S 754 mmHg 69%
01:00 +10°C° 0 mm 3 m/S 754 mmHg 69%
02:00 +8°C° 0 mm 4 m/S 754 mmHg 70%
03:00 +8°C° 0 mm 4 m/S 753 mmHg 71%
04:00 +8°C° 0 mm 4 m/S 753 mmHg 71%
05:00 +7°C° 0 mm 4 m/S 753 mmHg 71%
06:00 +8°C° 0 mm 4 m/S 753 mmHg 68%
07:00 +10°C° 0 mm 4 m/S 753 mmHg 64%
08:00 +10°C° 0 mm 5 m/S 754 mmHg 60%
09:00 +12°C° 0 mm 5 m/S 754 mmHg 57%
10:00 +13°C° 0 mm 5 m/S 754 mmHg 53%
11:00 +14°C° 0 mm 5 m/S 754 mmHg 50%
12:00 +14°C° 0 mm 5 m/S 754 mmHg 50%
13:00 +15°C° 0 mm 5 m/S 754 mmHg 50%
14:00 +15°C° 0 mm 5 m/S 754 mmHg 50%
15:00 +14°C° 0 mm 4 m/S 754 mmHg 54%
16:00 +13°C° 0 mm 4 m/S 754 mmHg 57%
17:00 +12°C° 0 mm 3 m/S 754 mmHg 61%
18:00 +12°C° 0 mm 3 m/S 754 mmHg 63%
19:00 +11°C° 0 mm 3 m/S 755 mmHg 65%
20:00 +11°C° 0 mm 3 m/S 755 mmHg 68%
21:00 +11°C° 0.2 mm 3 m/S 755 mmHg 72%
22:00 +10°C° 0.2 mm 3 m/S 755 mmHg 76%
23:00 +10°C° 0.2 mm 3 m/S 755 mmHg 81%
Mehr zeigen